CZ-6A DEB, 54527

Orbit data source: Space-Track

CZ-6A DEB, 54527 is space debris in SSO originally from a launch on Fri, 11 Nov 2022 UTC launched from the Taiyaun Space Center, China (TSC). Debris objects in space refer to the collection of defunct objects orbiting the Earth. Examples of debris include non-operational satellites, rocket bodies, and fragments generated from explosions, collisions, or faulty payload assembly.

Loading next visibility...
Identifier
54527, 2022-151KF
Orbit
SSO
Country
Flag of CNCN / PRC
Related business
Manufacturer
SAST
Mission
Spacecraft
Bus & Motor
Unknown
Mass
Unknown
Launch date (UTC)
2022-11-11 (4 years ago)
Launch vehicle
Unknown
Launch site
Taiyaun Space Center, China (TSC)
Object type
Payload
Rocket body
Debris
Shape & HBR
Unknown shape, 0.3 m
Radar Cross Section
Medium (>0.1 m² and <1 m²)

Expand to show TLE details & history
Last TLE update: 2 days ago

TLE from 2 days ago
0 CZ-6A DEB
1 54527U 22151KF  26171.30809669  .00002321  00000-0  87064-3 0  9998
2 54527  98.7179 197.6229 0035780 320.5024  39.3553 14.32281866187398
Epoch: 2026-06-20T07:23Z
TLE epoch observation values (Epoch: 2026-06-20T07:23:39.554Z)
Latitude
0.00008°
Longitude
178.18349°
Altitude
767.262 km
Speed
7.481 km/s
True Right ascension
13h 10m 29s
True Declination
0° 00' 00"
Sunlit
Object was in daylight at epoch
Visualization orbit readout
Latitude
Unknown
Longitude
Unknown
Altitude
Unknown
Speed
Unknown
Apparent Right ascension
Unknown
Apparent Declination
Unknown
Sunlit
N/A
Visualization observer readout
Local Sidereal Time
21:24:47
Azimuth
Unknown
Elevation
Unknown
Doppler factor
Unknown
Orbital elements
Apogee altitude
806.872 km
Perigee altitude
755.64 km
Semi-major axis
7,159.393 km
Eccentricity
0.00358
Inclination
98.7179°
RAAN
197.6229°
Arg. of periapsis
320.5024°
True anomaly
39.6162°
Mean anomaly
39.3553°
Eccentric anomaly
39.48566°
Mean motion
3.58285 °/min
Orbital period
100.48 mins
BSTAR
0.00087064
Loading maneuver chart data...
Computing Atmospheric mass density...
Loading historical data...
Loading historical data...
Loading historical data...
Loading historical data...
Loading historical data...
Loading historical data...
Loading historical data...

Documentation

Showing up to 5 results
|